Terug naar catalogus

STARLINK-31457

ActiefCommunicatieVLEO
NORAD 59414·PAYLOAD·🇺🇸 United States

Gelanceerd Apr 5, 2024 vanaf Cape Canaveral Space Force Station

Loading…

Volgende Passages (komende 24 uur)

TLE

VersSource: CelesTrak SupGP

Epoch: Sep 15, 2026, 02:44 UTC

1 59414C 24064S   26258.11437500 -.00021788  00000+0 -78877-3 0  2588
2 59414  43.0043  59.5506 0001631 282.0001 115.4516 15.27605721    13

Volg STARLINK-31457 in realtime met AllMySat

Download on the App Store